TimePST,TemperatureF,Dew PointF,Humidity,Sea Level PressureIn,VisibilityMPH,Wind Direction,Wind SpeedMPH,Gust SpeedMPH,PrecipitationIn,Events,Conditions,WindDirDegrees,DateUTC
12:58 AM,46.4,38.5,74,30.21,10.0,West,4.6,-,N/A,,Mostly Cloudy,260,2012-12-05 08:58:00
1:58 AM,44.1,36.9,76,30.19,10.0,NNE,5.8,-,N/A,,Partly Cloudy,20,2012-12-05 09:58:00
2:58 AM,45.0,38.3,77,30.18,10.0,SW,2.3,-,N/A,,Clear,230,2012-12-05 10:58:00
3:58 AM,43.3,37.2,79,30.16,10.0,Calm,Calm,-,N/A,,Clear,0,2012-12-05 11:58:00
4:58 AM,40.3,35.1,82,30.16,10.0,SSE,4.6,-,N/A,,Clear,160,2012-12-05 12:58:00
6:58 AM,40.3,35.4,83,30.16,10.0,Variable,1.2,-,N/A,,Clear,0,2012-12-05 14:58:00
7:58 AM,41.4,36.1,82,30.16,10.0,SSW,3.5,-,N/A,,Clear,210,2012-12-05 15:58:00
8:58 AM,46.9,38.3,72,30.17,10.0,Calm,Calm,-,N/A,,Clear,0,2012-12-05 16:58:00
9:58 AM,52.7,40.3,63,30.16,10.0,North,4.6,-,N/A,,Clear,360,2012-12-05 17:58:00
10:58 AM,55.4,40.1,56,30.14,10.0,Calm,Calm,-,N/A,,Clear,0,2012-12-05 18:58:00
11:58 AM,56.7,40.3,54,30.13,10.0,Calm,Calm,-,N/A,,Partly Cloudy,0,2012-12-05 19:58:00
12:58 PM,59.4,40.3,49,30.10,10.0,NNE,1.2,-,N/A,,Partly Cloudy,20,2012-12-05 20:58:00
1:58 PM,59.9,40.5,49,30.07,10.0,NE,1.2,-,N/A,,Clear,40,2012-12-05 21:58:00
2:58 PM,62.8,39.7,43,30.05,10.0,Calm,Calm,-,N/A,,Partly Cloudy,0,2012-12-05 22:58:00
3:58 PM,60.8,40.1,46,30.06,10.0,NNW,3.5,-,N/A,,Scattered Clouds,340,2012-12-05 23:58:00
4:58 PM,56.1,39.4,53,30.06,10.0,West,3.5,-,N/A,,Mostly Cloudy,260,2012-12-06 00:58:00
5:58 PM,53.4,38.5,57,30.07,10.0,West,5.8,-,N/A,,Overcast,270,2012-12-06 01:58:00
6:58 PM,48.4,37.0,65,30.06,10.0,West,4.6,-,N/A,,Partly Cloudy,280,2012-12-06 02:58:00
7:58 PM,47.5,36.9,67,30.07,10.0,Variable,2.3,-,N/A,,Clear,0,2012-12-06 03:58:00
8:58 PM,45.9,36.0,68,30.04,10.0,NW,4.6,-,N/A,,Clear,310,2012-12-06 04:58:00
9:58 PM,45.1,35.8,70,30.04,10.0,East,2.3,-,N/A,,Partly Cloudy,80,2012-12-06 05:58:00
10:58 PM,42.3,34.2,73,30.04,10.0,Calm,Calm,-,N/A,,Clear,0,2012-12-06 06:58:00
11:58 PM,41.9,34.3,75,30.03,10.0,Variable,1.2,-,N/A,,Mostly Cloudy,0,2012-12-06 07:58:00